Location: Amos
(48.5670°N, 78.1170°W)
Time: 16:41:07
(UTC-05:00)

CUTE 1.7 + AOD 2 - Visible Passes

Search period start: 27 January 2020 00:00
Search period end: 06 February 2020 00:00
Orbit: 595 x 611 km, 97.6° (Epoch: 27 January)

Date Brightness Start Highest point End Pass type
(mag) Time Alt. Az. Time Alt. Az. Time Alt. Az.
27 Jan ? 05:32:50 10° NNE 05:37:07 68° ESE 05:41:21 10° S visible
27 Jan ? 07:09:53 10° NNW 07:12:26 16° WNW 07:14:57 10° W visible
27 Jan ? 18:07:09 10° WSW 18:09:00 13° W 18:10:53 10° WNW visible
28 Jan ? 04:12:09 10° ENE 04:12:39 10° E 04:13:10 10° E visible
28 Jan ? 05:44:49 10° NNE 05:49:07 90° E 05:53:22 10° SSW visible
29 Jan ? 04:22:37 10° ENE 04:24:48 14° E 04:26:58 10° ESE visible
29 Jan ? 05:56:50 10° N 06:01:06 69° WNW 06:05:18 10° SSW visible
30 Jan ? 04:34:00 10° NE 04:36:56 18° E 04:39:50 10° SE visible
30 Jan ? 06:08:53 10° N 06:13:02 52° WNW 06:17:09 10° SSW visible
31 Jan ? 04:45:36 10° NE 04:49:02 23° E 04:52:25 10° SE visible
31 Jan ? 06:20:59 10° N 06:24:58 39° WNW 06:28:55 10° SW visible
01 Feb ? 04:57:20 10° NNE 05:01:06 30° E 05:04:50 10° SSE visible
01 Feb ? 06:33:08 10° N 06:36:53 30° WNW 06:40:36 10° SW visible
02 Feb ? 05:09:08 10° NNE 05:13:10 39° E 05:17:08 10° SSE visible
02 Feb ? 06:45:20 10° N 06:48:46 24° WNW 06:52:11 10° WSW visible
02 Feb ? 17:41:38 10° SW 17:44:53 21° W 17:48:09 10° NW visible
03 Feb ? 05:21:01 10° NNE 05:25:12 52° E 05:29:19 10° S visible
03 Feb ? 06:57:37 10° NNW 07:00:38 19° WNW 07:03:38 10° WSW visible
03 Feb ? 17:54:18 10° SW 17:56:59 16° W 17:59:40 10° NW visible
04 Feb ? 05:32:56 10° NNE 05:37:12 70° ESE 05:41:25 10° S visible
04 Feb ? 18:07:22 10° WSW 18:09:06 12° W 18:10:53 10° WNW visible
05 Feb ? 04:12:00 10° ENE 04:12:45 10° E 04:13:28 10° E visible
05 Feb ? 05:44:55 10° NNE 05:49:11 88° WNW 05:53:25 10° SSW visible
